When you browse on this site, cookies collect data to enhance your experience and personalize the content and advertising you see.
Visit our Privacy Policy to learn more. By continuing to use the site, you agree to this use of cookies and data.
  • In Spain
  • List of Countries
  • For 7 days
  • Water Temperature
  • Weather Map
  • Weather Widgets
  • user-avatar
    Login

    Hourly Weather Northallerton

    Today, 22 September, Sunday

    Time Temperature Precipitation Wind Pressure Humidity
    00:00 +13°C° 0 mm 1 mps 751 mmHg 89%
    01:00 +13°C° 0 mm 1 mps 751 mmHg 88%
    02:00 +13°C° 0 mm 1 mps 750 mmHg 87%
    03:00 +13°C° 0 mm 1 mps 749 mmHg 86%
    04:00 +13°C° 0 mm 1 mps 749 mmHg 87%
    05:00 +13°C° 0 mm 1 mps 749 mmHg 88%
    06:00 +14°C° 0 mm 1 mps 749 mmHg 89%
    07:00 +15°C° 0.1 mm 1 mps 748 mmHg 87%
    08:00 +16°C° 0.1 mm 1 mps 748 mmHg 85%
    09:00 +18°C° 0.1 mm 1 mps 748 mmHg 83%
    10:00 +19°C° 0.1 mm 1 mps 748 mmHg 83%
    11:00 +18°C° 0.1 mm 2 mps 748 mmHg 82%
    12:00 +19°C° 0.1 mm 2 mps 748 mmHg 82%
    13:00 +20°C° 0 mm 2 mps 747 mmHg 79%
    14:00 +21°C° 0 mm 2 mps 747 mmHg 76%
    15:00 +22°C° 0 mm 3 mps 747 mmHg 73%
    16:00 +20°C° 1.1 mm 2 mps 747 mmHg 80%
    17:00 +19°C° 1.1 mm 2 mps 747 mmHg 87%
    18:00 +17°C° 1.1 mm 2 mps 747 mmHg 94%
    19:00 +17°C° 1.6 mm 2 mps 748 mmHg 95%
    20:00 +18°C° 1.6 mm 1 mps 748 mmHg 96%
    21:00 +16°C° 1.6 mm 1 mps 748 mmHg 97%
    22:00 +16°C° 0.2 mm 1 mps 748 mmHg 97%
    23:00 +15°C° 0.2 mm 2 mps 748 mmHg 96%

    Tomorrow, 23 September, Monday

    Time Temperature Precipitation Wind Pressure Humidity
    00:00 +15°C° 0.2 mm 2 mps 749 mmHg 96%
    01:00 +14°C° 0 mm 2 mps 749 mmHg 96%
    02:00 +14°C° 0 mm 2 mps 749 mmHg 96%
    03:00 +14°C° 0 mm 2 mps 749 mmHg 96%
    04:00 +13°C° 0 mm 2 mps 749 mmHg 96%
    05:00 +13°C° 0 mm 2 mps 750 mmHg 95%
    06:00 +13°C° 0 mm 2 mps 750 mmHg 95%
    07:00 +14°C° 0 mm 2 mps 750 mmHg 92%
    08:00 +15°C° 0 mm 2 mps 751 mmHg 89%
    09:00 +16°C° 0 mm 3 mps 751 mmHg 85%
    10:00 +17°C° 0.1 mm 3 mps 751 mmHg 82%
    11:00 +18°C° 0.1 mm 4 mps 751 mmHg 78%
    12:00 +18°C° 0.1 mm 4 mps 751 mmHg 75%
    13:00 +18°C° 0.1 mm 4 mps 751 mmHg 72%
    14:00 +18°C° 0.1 mm 4 mps 751 mmHg 69%
    15:00 +18°C° 0.1 mm 4 mps 751 mmHg 66%
    16:00 +18°C° 0 mm 4 mps 751 mmHg 69%
    17:00 +17°C° 0 mm 3 mps 751 mmHg 72%
    18:00 +16°C° 0 mm 3 mps 750 mmHg 76%
    19:00 +16°C° 0.1 mm 3 mps 750 mmHg 78%
    20:00 +15°C° 0.1 mm 4 mps 750 mmHg 80%
    21:00 +14°C° 0.1 mm 4 mps 750 mmHg 82%
    22:00 +14°C° 0.3 mm 5 mps 749 mmHg 86%
    23:00 +14°C° 0.3 mm 5 mps 749 mmHg 89%

    Day after tomorrow, 24 September, Tuesday

    Time Temperature Precipitation Wind Pressure Humidity
    00:00 +14°C° 0.3 mm 5 mps 748 mmHg 93%
    01:00 +14°C° 0.1 mm 5 mps 748 mmHg 93%
    02:00 +14°C° 0.1 mm 4 mps 747 mmHg 93%
    03:00 +15°C° 0.1 mm 4 mps 747 mmHg 94%
    04:00 +16°C° 0 mm 3 mps 746 mmHg 95%
    05:00 +16°C° 0 mm 3 mps 746 mmHg 96%
    06:00 +16°C° 0 mm 3 mps 745 mmHg 97%
    07:00 +16°C° 0.2 mm 3 mps 745 mmHg 94%
    08:00 +17°C° 0.2 mm 3 mps 745 mmHg 91%
    09:00 +18°C° 0.2 mm 4 mps 744 mmHg 88%
    10:00 +18°C° 0.5 mm 4 mps 744 mmHg 87%
    11:00 +19°C° 0.5 mm 5 mps 744 mmHg 85%
    12:00 +19°C° 0.5 mm 5 mps 743 mmHg 83%
    13:00 +17°C° 1.9 mm 5 mps 743 mmHg 86%
    14:00 +18°C° 1.9 mm 4 mps 743 mmHg 88%
    15:00 +17°C° 1.9 mm 3 mps 742 mmHg 91%
    16:00 +16°C° 1.1 mm 3 mps 742 mmHg 92%
    17:00 +16°C° 1.1 mm 3 mps 742 mmHg 92%
    18:00 +14°C° 1.1 mm 4 mps 742 mmHg 93%
    19:00 +14°C° 1.4 mm 4 mps 742 mmHg 94%
    20:00 +14°C° 1.4 mm 4 mps 742 mmHg 94%
    21:00 +13°C° 1.4 mm 4 mps 742 mmHg 95%
    22:00 +13°C° 1.4 mm 4 mps 742 mmHg 95%
    23:00 +13°C° 1.4 mm 3 mps 742 mmHg 95%

    25 September, Wednesday

    Time Temperature Precipitation Wind Pressure Humidity
    00:00 +13°C° 1.4 mm 3 mps 742 mmHg 95%
    01:00 +13°C° 0.7 mm 3 mps 742 mmHg 95%
    02:00 +13°C° 0.7 mm 3 mps 742 mmHg 96%
    03:00 +14°C° 0.7 mm 2 mps 742 mmHg 96%
    04:00 +14°C° 0.1 mm 2 mps 742 mmHg 96%
    05:00 +14°C° 0.1 mm 2 mps 742 mmHg 96%
    06:00 +14°C° 0.1 mm 2 mps 743 mmHg 96%
    07:00 +15°C° 0.1 mm 2 mps 743 mmHg 96%
    08:00 +15°C° 0.1 mm 1 mps 743 mmHg 95%
    09:00 +15°C° 0.1 mm 1 mps 744 mmHg 94%
    10:00 +16°C° 0.1 mm 1 mps 744 mmHg 91%
    11:00 +18°C° 0.1 mm 1 mps 744 mmHg 87%
    12:00 +17°C° 0.1 mm 2 mps 745 mmHg 84%
    13:00 +17°C° 0.4 mm 2 mps 745 mmHg 83%
    14:00 +17°C° 0.4 mm 3 mps 745 mmHg 83%
    15:00 +17°C° 0.4 mm 3 mps 745 mmHg 83%
    16:00 +17°C° 0 mm 3 mps 745 mmHg 85%
    17:00 +16°C° 0 mm 2 mps 745 mmHg 88%
    18:00 +15°C° 0 mm 2 mps 745 mmHg 90%
    19:00 +15°C° 0 mm 2 mps 745 mmHg 90%
    20:00 +15°C° 0 mm 2 mps 745 mmHg 91%
    21:00 +14°C° 0 mm 3 mps 745 mmHg 91%
    22:00 +14°C° 0.4 mm 3 mps 744 mmHg 92%
    23:00 +14°C° 0.4 mm 4 mps 743 mmHg 94%

    26 September, Thursday

    Time Temperature Precipitation Wind Pressure Humidity
    00:00 +14°C° 0.4 mm 5 mps 743 mmHg 96%
    01:00 +15°C° 1.2 mm 5 mps 743 mmHg 95%
    02:00 +15°C° 1.2 mm 6 mps 742 mmHg 94%
    03:00 +16°C° 1.2 mm 6 mps 742 mmHg 93%
    04:00 +15°C° 0.1 mm 6 mps 742 mmHg 92%
    05:00 +15°C° 0.1 mm 6 mps 742 mmHg 91%
    06:00 +14°C° 0.1 mm 6 mps 742 mmHg 90%
    07:00 +14°C° 0 mm 6 mps 743 mmHg 86%
    08:00 +14°C° 0 mm 6 mps 743 mmHg 83%
    09:00 +14°C° 0 mm 6 mps 744 mmHg 79%
    10:00 +15°C° 0 mm 6 mps 744 mmHg 75%
    11:00 +16°C° 0 mm 6 mps 744 mmHg 72%
    12:00 +17°C° 0 mm 6 mps 744 mmHg 69%
    13:00 +16°C° 0.3 mm 5 mps 744 mmHg 72%
    14:00 +16°C° 0.3 mm 5 mps 744 mmHg 75%
    15:00 +15°C° 0.3 mm 5 mps 744 mmHg 78%
    16:00 +14°C° 0.2 mm 5 mps 744 mmHg 81%
    17:00 +14°C° 0.2 mm 4 mps 744 mmHg 84%
    18:00 +13°C° 0.2 mm 3 mps 744 mmHg 87%
    19:00 +12°C° 0 mm 3 mps 744 mmHg 88%
    20:00 +12°C° 0 mm 3 mps 744 mmHg 88%
    21:00 +11°C° 0 mm 3 mps 744 mmHg 89%
    22:00 +11°C° 0 mm 3 mps 744 mmHg 90%
    23:00 +11°C° 0 mm 3 mps 744 mmHg 90%

    27 September, Friday

    Time Temperature Precipitation Wind Pressure Humidity
    00:00 +11°C° 0 mm 3 mps 744 mmHg 91%
    01:00 +11°C° 0 mm 3 mps 744 mmHg 91%
    02:00 +11°C° 0 mm 4 mps 744 mmHg 91%
    03:00 +11°C° 0 mm 4 mps 744 mmHg 91%
    04:00 +11°C° 0 mm 4 mps 744 mmHg 91%
    05:00 +11°C° 0 mm 4 mps 744 mmHg 92%
    06:00 +11°C° 0 mm 4 mps 744 mmHg 92%
    07:00 +12°C° 0 mm 4 mps 744 mmHg 88%
    08:00 +13°C° 0 mm 4 mps 745 mmHg 84%
    09:00 +14°C° 0 mm 5 mps 745 mmHg 80%
    10:00 +14°C° 0.1 mm 5 mps 745 mmHg 77%
    11:00 +15°C° 0.1 mm 6 mps 745 mmHg 74%
    12:00 +15°C° 0.1 mm 6 mps 745 mmHg 71%
    13:00 +15°C° 0.1 mm 6 mps 745 mmHg 72%
    14:00 +15°C° 0.1 mm 6 mps 744 mmHg 72%
    15:00 +15°C° 0.1 mm 6 mps 744 mmHg 73%
    16:00 +14°C° 0 mm 5 mps 744 mmHg 76%
    17:00 +14°C° 0 mm 5 mps 744 mmHg 79%
    18:00 +13°C° 0 mm 5 mps 744 mmHg 83%
    19:00 +13°C° 0.2 mm 5 mps 744 mmHg 84%
    20:00 +13°C° 0.2 mm 6 mps 743 mmHg 85%
    21:00 +12°C° 0.2 mm 7 mps 743 mmHg 86%
    22:00 +12°C° 0.7 mm 7 mps 743 mmHg 88%
    23:00 +13°C° 0.7 mm 6 mps 743 mmHg 89%
    Show more